Regional Weather Roundup
Issued by NWS

Home | Current Version | Previous Version | Text Only | Print | Product List | Glossary Off
Versions: 1 2 3 4 5 6 7 8 9 10 11 12 13 14 15 16 17 18 19 20 21 22 23 24 25 26 27 28 29 30 31 32 33 34 35 36 37 38 39 40 41 42 43 44 45 46 47 48 49 50

000
ASUS43 KLOT 170304
RWRIL

ILLINOIS REGIONAL WEATHER ROUNDUP
NATIONAL WEATHER SERVICE CHICAGO/ROMEOVILLE IL
1000 PM CDT MON OCT 16 2017

NOTE: "FAIR" INDICATES FEW OR NO CLOUDS BELOW 12,000 FEET WITH NO
SIGNIFICANT WEATHER AND/OR OBSTRUCTIONS TO VISIBILITY.

* THESE STATIONS ARE NOT UNDER NWS QUALITY CONTROL. THEY ALSO MAY NOT
  REPORT WEATHER SUCH AS PRECIPITATION OR FOG.

ILZ001-002-007-009-015-016-024-170400-
NORTHWEST ILLINOIS

CITY           SKY/WX    TMP DP  RH WIND       PRES   REMARKS
MOLINE         CLEAR     53  37  54 S7        30.20S
STERLING*      CLEAR     51  39  63 CALM        N/A
SAVANNA*       CLEAR     46  40  82 S7        30.19F
$$

ILZ003-004-008-010-011-017-018-170400-
NORTH CENTRAL ILLINOIS

CITY           SKY/WX    TMP DP  RH WIND       PRES   REMARKS
ROCKFORD       CLEAR     48  38  68 S5        30.21F
FREEPORT*      CLEAR     48  38  66 S9        30.20S
ROCHELLE*      CLEAR     42  39  88 S6        30.22R
$$

ILZ005-006-012>014-019>023-170400-
NORTHEAST ILLINOIS

CITY           SKY/WX    TMP DP  RH WIND       PRES   REMARKS
CHICAGO-OHARE  CLEAR     51  38  60 S7        30.20F
CHICAGO-MIDWAY CLEAR     53  40  61 S7        30.21F
AURORA         CLEAR     49  38  65 S7        30.22S
LANSING*       CLEAR     45  40  81 S5        30.24S
JOLIET*        CLEAR     44  43  94 CALM      30.23S
WAUKEGAN       CLEAR     48  39  71 SW6       30.19R
DUPAGE AIRPORT CLEAR     46  40  79 S6        30.20F
KANKAKEE*      CLEAR     52  37  57 SW5       30.26S
WHEELING       CLEAR     50  42  74 CALM      30.22S
NORTHERLY ISL    N/A     55  35  47 S7          N/A
$$

LMZ740>746-170400-
SOUTHERN LAKE MICHIGAN

STATION/POSITION SKY/WX   TEMP    WIND        PRES    VSBY  WAVE
                          AIR SEA DIR/SP/G                  HT/PER
                          (F)     (DEG/KT/KT) (MB)    (MI)  (FT/S)
SOUTHERN BUOY              60 62  250/ 14/ 16 1022.4          1/ 3
WILMETTE HARBOR            56 58  200/ 10/ 12   N/A           1
HARRISON CRIB              60     210/ 11/ 12   N/A
BURNHAM HARBOR             56     190/  5/  6   N/A
CALUMET HARBOR             54     190/  2/  3 1022.8F
BURNS HARBOR               52     180/  8/  9 1024.0S
MICHIGAN CITY              53     170/  7/  9   N/A
MICHIGAN CITY 6N           56 58  200/ 10/ 12   N/A           2/ 5
ST. JOSEPH                 55 58  200/ 10/ 12 1023.9S         2/ 5
$$

ILZ025>027-034>036-040-047-049-050-058-095>099-170400-
WEST-CENTRAL ILLINOIS

CITY           SKY/WX    TMP DP  RH WIND       PRES   REMARKS
QUINCY         CLEAR     52  37  56 S7        30.26S
GALESBURG*     CLEAR     47  38  71 CALM      30.25R
MACOMB*        CLEAR     47  38  71 SW7       30.27R
JACKSONVILLE*  CLEAR     50  38  62 S3        30.28R
$$

ILZ028>032-037-038-041>044-048-051>054-059>061-170400-
CENTRAL ILLINOIS

CITY           SKY/WX    TMP DP  RH WIND       PRES   REMARKS
BLOOMINGTON    CLEAR     47  37  68 SW5       30.27S
DECATUR        CLEAR     49  39  68 SW6       30.29R
PEORIA         CLEAR     51  39  63 SW3       30.25S
LACON*         CLEAR     44  39  82 S3        30.24R
LINCOLN*       CLEAR     46  40  78 CALM      30.27S
SPRINGFIELD    CLEAR     45  42  89 S5        30.28S
TAYLORVILLE    CLEAR     46  40  79 S7        30.30S
$$

ILZ033-039-045-046-055>057-062-063-170400-
EAST-CENTRAL ILLINOIS

CITY           SKY/WX    TMP DP  RH WIND       PRES   REMARKS
CHAMPAIGN      CLEAR     45  38  76 S8        30.29R
DANVILLE*      CLEAR     47  38  69 SW3       30.26R
MATTOON        CLEAR     52  40  63 S6        30.29R
PARIS*         CLEAR     43  38  83 S6        30.30S
$$

ILZ079-100>102-170400-
SOUTHWEST ILLINOIS

CITY           SKY/WX    TMP DP  RH WIND       PRES   REMARKS
CAHOKIA*       CLEAR     48  39  71 CALM      30.31R
SPARTA*        CLEAR     46  43  90 CALM      30.33R
$$

ILZ064>066-069>071-074>076-080>082-084>086-088>090-092>094-170400-
SOUTH-CENTRAL ILLINOIS

CITY           SKY/WX    TMP DP  RH WIND       PRES   REMARKS
CARBONDALE     CLEAR     43  42  97 CALM      30.33R
MARION         CLEAR     47  44  87 CALM      30.34R
MT. VERNON     CLEAR     41  41 100 CALM      30.33R
CENTRALIA*     CLEAR     43  41  93 CALM      30.32R
METROPOLIS*    CLEAR     44  41  89 CALM      30.34S
$$

ILZ067-068-072-073-078-083-087-091-170400-
SOUTHEAST ILLINOIS

CITY           SKY/WX    TMP DP  RH WIND       PRES   REMARKS
LAWRENCEVILLE  CLEAR    N/A N/A N/A S5        30.32S
FLORA*         CLEAR     48  43  81 CALM      30.32S
FAIRFIELD*     CLEAR     46  43  90 CALM      30.32R
HARRISBURG*    CLEAR     42  40  91 CALM      30.33S
ROBINSON*      CLEAR     43  40  89 CALM      30.32S
CARMI*         CLEAR     43  41  93 CALM      30.32S
$$

ABBREVIATIONS USED IN REMARKS
   TC - TEMPERATURE IN CELSIUS
  WCI - WIND CHILL INDEX
   HX - HEAT INDEX
  VSB - VISIBILITY
$$





USA.gov is the U.S. government's official web portal to all federal, state and local government web resources and services.